Location: Unspecified
(41.1850°N, 73.2650°W)
Time: 16:28:38
(UTC+00:00)

Daily predictions for brighter satellites

Satellite Brightness Start Highest point End
(mag) Time Altitude Azimuth Time Altitude Azimuth Time Altitude Azimuth
Cosmos 1606 Rocket 3.6 21:51:34 10° S 21:55:55 64° E 22:00:19 10° NNE
IRIDIUM 114 4.3 21:51:31 10° N 21:56:45 73° E 22:01:57 10° S
BREEZE M DEB (TANK) 2.9 21:56:39 10° W 21:59:19 32° NNW 22:01:13 10° NE
Cosmos-2242 4.2 21:57:46 10° SE 22:01:00 22° E 22:04:15 10° NE
Cosmos 2151 3.2 21:56:55 10° NNW 22:01:05 73° W 22:05:14 10° S
GEOS 3 Rocket 3.8 21:58:14 10° NE 22:03:36 65° ESE 22:08:54 10° SSW
CZ-2D R/B 3.6 22:02:06 10° SE 22:04:49 28° ENE 22:07:33 10° NNE
IRIDIUM 103 4.4 22:00:40 10° N 22:05:55 88° E 22:11:08 10° S
Meteor 1-28 Rocket 3.5 22:02:57 10° N 22:06:14 58° WNW 22:09:29 10° SSW
Gbstr 26 Del rocket 4.1 22:03:35 10° W 22:07:21 30° NNW 22:10:46 10° NE
Aureole 1 Rocket 3.5 22:06:33 10° S 22:10:51 57° ESE 22:16:20 10° NNE
Cosmos 1655 Rocket 4.1 22:05:28 10° N 22:11:32 51° ENE 22:17:32 10° SSE
Cosmos 2297 Rocket 3.8 22:08:26 10° NW 22:13:41 40° WSW 22:18:54 10° S
SAR-Lupe-4 3.9 22:11:10 10° SE 22:14:31 42° ENE 22:17:53 10° N
ARIANE 5 R/B 2.6 22:10:49 10° SSE 22:15:45 57° ENE 22:20:47 10° N
EXPRESS MD2 2.4 22:13:47 10° WSW 22:16:04 67° NNW 22:18:40 14° NE
Cosmos 1726 Rocket 3.6 22:12:58 10° S 22:17:36 82° E 22:22:11 10° N
SL-16 R/B 3.7 22:16:21 10° SE 22:19:36 16° E 22:21:40 13° ENE
Cosmos 1867 4.4 22:20:45 10° NW 22:26:03 54° WSW 22:31:19 10° SSE
UNK 4.0 22:21:43 10° N 22:26:15 70° WNW 22:30:45 10° SSW
CORIOLIS 4.3 22:21:28 10° SSE 22:26:48 82° WSW 22:32:10 10° NNW
YAOGAN 1 3.7 22:25:00 10° ESE 22:28:09 21° ENE 22:31:21 10° NNE
SAR-Lupe-1 4.1 22:24:43 10° SSE 22:28:13 55° ENE 22:31:47 10° N
AQUARIUS 4.1 22:26:07 10° SSE 22:30:26 59° ENE 22:34:47 10° N
Cosmos 1980 Rocket 2.3 22:27:06 10° SSW 22:32:46 81° WNW 22:38:25 10° NNE
IRS-1C 4.1 22:27:43 10° SSE 22:33:02 81° ENE 22:38:22 10° NNW
Cosmos 1844 Rocket 4.1 22:30:24 10° N 22:34:01 17° NE 22:34:41 17° ENE
Meteor 2-20 4.4 22:32:02 10° S 22:38:11 85° E 22:44:21 10° N
Cosmos 2219 3.3 22:33:25 10° NNW 22:39:02 53° ENE 22:44:38 10° SE
Meteor 2-10 4.1 22:35:12 10° N 22:40:37 62° ENE 22:46:11 10° SSE
Cosmos 2263 Rocket 2.1 22:37:36 10° NNW 22:43:19 84° ENE 22:49:00 10° SSE
USA 81 4.0 22:38:33 10° N 22:43:47 62° E 22:48:58 10° SSE
SJ-12 3.8 22:40:09 10° S 22:43:55 81° W 22:47:43 10° NNW
SPOT 1/Viking Rocket 3.7 22:38:58 10° SE 22:43:58 50° ENE 22:48:59 10° N
Meteor 2-2 Rocket 4.2 22:38:31 10° S 22:44:03 61° E 22:49:36 10° NNE
Meteor 1-26 Rocket 4.1 22:41:01 10° S 22:46:20 66° E 22:51:42 10° NNE
CZ-4C R/B 4.2 22:39:27 10° NW 22:46:39 48° WSW 22:55:05 10° S
USA 308 3.1 22:44:08 10° SSW 22:46:53 33° SE 22:47:47 29° E
COSMOS 2455 3.2 22:43:00 10° S 22:48:42 47° ESE 22:52:28 21° NE
SKYMED 2 3.6 22:45:04 10° NNE 22:49:18 58° E 22:53:34 10° S
SMAP 4.1 22:44:52 10° S 22:49:22 48° W 22:53:53 10° NNW
MOS 1 Rocket 3.5 22:46:16 10° SSE 22:51:13 85° W 22:56:28 10° NNW
Cosmos 1553 Rocket 4.0 22:46:03 10° SSE 22:52:03 57° E 22:58:11 10° NNE
Landsat 7 4.4 22:48:30 10° S 22:53:03 57° W 22:57:39 10° NNW
Cosmos 2369 3.7 22:47:32 10° SSW 22:53:14 83° ESE 22:58:20 13° NNE
Cosmos 1538 Rocket 4.1 22:48:09 10° NNW 22:53:28 82° WSW 22:58:48 10° SSE
COSMO-SKYMED 1 2.8 22:53:03 26° NE 22:54:50 41° E 22:58:43 10° S
Cosmos 1953 Rocket 4.0 22:51:30 10° NNW 22:55:55 65° W 23:00:18 10° S
Cosmos 1805 2.7 22:52:43 10° N 22:56:03 66° E 22:59:23 10° SSE
USA 59 Rocket 1.7 22:54:27 10° SSE 22:56:13 15° SE 22:56:13 15° SE
Meteor 2-20 Rocket 4.4 22:53:02 10° S 22:59:15 88° E 23:05:16 10° N
SAR-Lupe-3 4.4 23:02:30 38° NNW 23:03:06 50° WNW 23:05:29 10° SSW
SL-19 R/B 4.4 22:58:26 10° SE 23:03:35 46° ENE 23:09:01 10° N
Cosmos 2227 Rocket 3.9 23:00:23 10° NW 23:05:28 35° WSW 23:10:32 10° S
Cosmos 2360 Rocket 3.8 23:01:39 10° SE 23:03:51 17° ESE 23:03:51 17° ESE
Hubble Space Telescope 3.3 23:08:32 10° SSW 23:09:47 11° S 23:11:03 10° SSE
Cosmos 2221 3.5 23:07:28 10° SSE 23:09:58 28° SE 23:09:58 28° SE
Cosmos 1745 Rocket 4.3 23:06:35 10° N 23:12:20 40° ENE 23:18:01 10° SE
Cosmos 1812 Rocket 4.5 23:09:05 10° SSE 23:11:48 30° SE 23:11:48 30° SE
Cosmos 1898 Rocket 4.2 23:10:38 10° SW 23:15:37 51° WNW 23:20:26 11° N
Spot 4 Rocket 3.9 23:12:05 10° SSE 23:17:09 71° ENE 23:22:16 10° N
Cosmos 1244 Rocket 4.5 23:12:14 10° N 23:18:31 86° W 23:24:41 10° S
BREEZE-M DEB (TANK) 4.4 23:14:26 10° NW 23:18:41 60° NNE 23:25:47 25° E
Cosmos 2333 Rocket 2.6 23:19:27 10° S 23:24:47 41° ESE 23:24:52 41° ESE
BREEZE-M DEB (TANK) 3.5 23:17:04 10° SW 23:25:20 69° SSE 23:26:17 52° E
Cosmos 2112 Rocket 4.1 23:21:01 10° N 23:25:57 50° ENE 23:25:57 50° ENE
Okean 1 4.5 23:23:28 10° SSW 23:26:50 37° WNW 23:29:13 17° NNW
Helios 1A Rocket 3.7 23:28:50 32° S 23:28:50 32° S 23:30:47 10° S
SL-08 R/B 4.5 23:21:11 10° N 23:27:33 88° W 23:33:53 10° S
Cosmos 1937 Rocket 4.1 23:24:04 10° SW 23:29:06 53° WNW 23:32:50 18° N
Cosmos 1386 Rocket 4.3 23:24:25 10° N 23:30:33 73° E 23:36:47 10° SSE
Cosmos 1417 Rocket 4.4 23:24:38 10° S 23:30:42 64° E 23:34:11 26° NNE
Cosmos 2322 Rocket 3.0 23:26:46 10° S 23:30:38 32° SE 23:30:38 32° SE
Cosmos 923 Rocket 4.0 23:29:33 10° NNW 23:34:45 81° WSW 23:39:55 10° SSE
Meteor 1-14 Rocket 4.0 23:38:04 10° N 23:43:48 74° E 23:49:22 10° SSE
NOSS 3-1 (C) 4.2 23:40:45 10° S 23:42:49 25° S 23:42:49 25° S
Resurs 1-3 4.3 23:44:01 10° S 23:48:13 53° W 23:52:26 10° NNW
